COSMOS 252 DEB, 3569

Orbit data source: Space-Track

COSMOS 252 DEB, 3569 is space debris in LEO originally from a launch on Fri, 01 Nov 1968 UTC launched from the Tyuratam Missile And Space Complex (TTMTR). Debris objects in space refer to the collection of defunct objects orbiting the Earth. Examples of debris include non-operational satellites, rocket bodies, and fragments generated from explosions, collisions, or faulty payload assembly.

Loading next visibility...
Identifier
3569, 1968-097V
Orbit
LEO
Country
Flag of CISCIS
Related business
Manufacturer
Unknown
Mission
Spacecraft
Bus & Motor
Unknown
Mass
Unknown
Launch date (UTC)
1968-11-01 (57 years ago)
Launch vehicle
Unknown
Launch site
Tyuratam Missile And Space Complex (TTMTR)
Object type
Payload
Rocket body
Debris
Shape & HBR
Unknown shape, 0.1 m
Radar Cross Section
Small (<0.1 m²)

Expand to show TLE details & history
Last TLE update: 4 hours ago

TLE from 4 hours ago
0 COSMOS 252 DEB
1  3569U 68097V   25354.52198125  .00003125  00000-0  59111-3 0  9996
2  3569  62.2870 180.4945 0572716  92.7659 273.9041 13.95158111793906
Epoch: 2025-12-20T12:31Z
TLE epoch observation values (Epoch: 2025-12-20T12:31:39.179Z)
Latitude
0.00002°
Longitude
-96.76632°
Altitude
907.791 km
Speed
7.401 km/s
True Right ascension
12h 01m 58s
True Declination
0° 00' 00"
Sunlit
Object was in daylight at epoch
Visualization orbit readout
Latitude
Unknown
Longitude
Unknown
Altitude
Unknown
Speed
Unknown
Apparent Right ascension
Unknown
Apparent Declination
Unknown
Sunlit
N/A
Visualization observer readout
Local Sidereal Time
15:04:45
Azimuth
Unknown
Elevation
Unknown
Doppler factor
Unknown
Orbital elements
Apogee altitude
1,326.926 km
Perigee altitude
492.171 km
Semi-major axis
7,287.686 km
Eccentricity
0.05727
Inclination
62.287°
RAAN
180.4945°
Arg. of periapsis
92.7659°
True anomaly
267.33883°
Mean anomaly
273.9041°
Eccentric anomaly
270.62287°
Mean motion
3.48866 °/min
Orbital period
103.19 mins
BSTAR
0.00059111
Loading maneuver chart data...
Computing Atmospheric mass density...

Documentation

Showing up to 5 results
|